Epoch = 2002 Sept. 3.0 TT T = 2002 Sept. 3.92009 TT Peri. = 1.25292 e = 0.5471001 Node = 324.16139 2000.0 q = 1.6985286 AU Incl. = 11.34129 a = 3.7503402 AU n = 0.13570570 P = 7.26 years
m1 = 17.3 + 5 logΔ + 10.0 log r